Wind_Speed
6 6 6 6 6 7 7 7 7 7 7 7 6 6 7 7 7 7 8 8 9 9 9 9 9 11 11 11 11 12 13 14 14 16 16 16 15 15 14 15 15 16 16
6 7 7 7 7 7 7 7 7 7 6 6 6 6 6 6 6 7 8 8 9 9 8 9 9 9 10 11 11 12 13 14 14 15 16 16 16 15 14 15 16 16 16
6 7 7 7 7 7 7 7 7 6 6 5 5 5 5 6 6 7 7 8 8 9 8 9 9 9 10 10 10 11 12 14 14 15 16 16 16 16 16 16 16 17 17
6 7 7 8 8 8 8 7 7 6 5 5 4 4 5 5 5 6 7 7 8 8 9 9 9 9 9 10 10 11 13 14 14 15 16 17 17 17 16 16 17 17 17
6 6 7 8 8 8 8 8 7 6 5 5 4 4 4 4 4 5 6 6 7 8 8 9 9 10 9 10 11 11 13 13 14 14 15 16 17 17 17 17 17 17 17
5 6 7 8 8 8 9 9 8 7 6 5 4 4 3 4 4 5 5 5 6 7 7 8 9 9 10 11 11 11 12 13 14 14 14 16 17 18 18 18 17 18 18
5 6 6 7 8 9 9 9 8 8 7 6 5 4 3 3 3 4 5 5 5 6 7 8 9 9 9 10 11 12 12 13 14 15 15 16 18 19 19 19 19 19 19
5 6 6 7 8 9 9 9 9 8 7 7 6 5 4 3 2 3 3 4 5 6 7 8 9 9 10 11 12 12 12 12 13 15 16 16 17 18 19 19 20 20 20
5 6 6 7 8 8 9 9 9 8 7 6 6 5 4 3 3 2 3 4 5 6 7 8 9 10 10 11 12 13 13 13 13 14 15 16 17 18 19 20 21 21 21
5 5 6 7 7 8 9 9 8 8 8 6 6 5 4 4 3 2 2 3 5 6 7 8 9 10 10 11 12 14 14 14 15 14 15 16 17 18 19 20 22 22 22
4 5 6 7 7 8 8 8 8 8 8 7 6 6 5 4 4 3 3 4 5 6 7 8 9 10 11 12 13 13 14 15 15 15 15 17 18 19 20 21 21 22 22
5 5 6 6 7 8 8 8 8 8 8 7 7 6 6 5 5 4 5 5 6 6 7 8 9 10 11 12 13 14 14 15 16 16 16 17 17 19 20 21 21 22 22
5 5 6 6 7 8 8 8 8 8 8 7 7 7 6 6 6 6 6 7 7 7 7 8 9 10 11 12 14 14 14 15 16 16 16 17 18 18 19 21 22 23 23
5 5 6 6 7 8 9 9 9 9 8 8 8 7 7 7 7 7 7 8 8 8 8 9 10 11 12 13 14 15 15 16 17 18 18 18 19 19 20 21 22 23 24
5 6 6 7 8 8 9 10 10 10 10 9 9 9 9 9 9 9 9 9 9 10 10 10 11 11 13 14 15 16 17 17 17 18 18 18 20 21 21 22 23 24 24
6 6 7 8 8 9 9 10 10 11 11 11 11 10 10 10 10 11 11 11 11 11 11 11 12 13 14 15 16 17 18 19 19 18 19 19 20 22 22 23 25 25 25
7 7 8 9 9 9 10 11 12 12 12 13 13 13 13 13 13 13 13 13 13 13 13 13 14 14 15 16 17 18 19 19 20 20 21 21 22 22 23 24 26 26 27
8 9 9 10 10 11 12 12 13 13 14 14 15 15 15 15 15 15 15 15 15 16 16 16 16 17 17 18 18 19 20 21 21 22 22 23 24 24 23 24 25 26 27
9 10 11 11 12 13 13 14 14 15 16 17 17 17 17 17 17 17 17 17 17 18 19 19 19 19 20 20 21 21 22 23 24 24 25 25 26 26 25 25 26 27 27
11 11 13 13 14 14 15 15 16 17 18 18 18 18 19 19 19 19 19 19 20 21 21 21 21 22 22 23 23 23 24 25 25 26 27 28 28 29 29 28 28 29 30
12 13 14 15 16 16 17 17 18 19 19 19 20 20 20 21 21 21 22 22 23 23 23 24 24 24 24 25 25 25 26 26 27 28 28 29 30 31 32 32 32 32 33
14 15 16 17 18 18 18 19 20 20 21 21 21 22 22 23 23 24 24 24 25 25 25 26 26 27 27 27 27 28 28 29 29 29 30 31 31 32 34 35 35 36 36
16 17 18 19 20 20 20 21 21 22 23 23 23 24 24 25 26 26 27 27 27 28 28 29 29 29 29 29 30 30 31 31 32 32 33 33 34 35 36 37 38 38 39
18 19 20 20 21 21 21 22 23 24 25 25 26 26 27 27 28 28 29 30 30 30 30 30 31 31 32 32 32 33 33 34 35 36 36 36 37 38 39 40 41 41 41
19 21 21 22 23 22 23 24 25 25 26 27 28 29 29 30 30 31 32 32 32 33 33 33 33 33 34 34 35 35 36 37 37 38 40 40 40 41 41 42 43 44 45
20 21 22 23 23 24 25 26 26 27 28 29 30 31 32 33 33 33 34 34 34 35 35 36 36 37 37 38 39 39 40 40 41 42 43 44 45 45 45 45 47 48 48
Wind_Direction
353 348 348 346 343 336 329 325 323 318 306 297 293 281 269 265 262 256 249 244 239 236 235 232 231 228 227 225 223 219 217 214 215 215 215 216 217 217 217 216 214 211 212
2 358 356 352 350 345 339 332 327 320 313 304 297 287 272 264 260 255 251 246 243 240 239 235 232 230 229 227 224 221 221 219 216 218 217 217 217 217 218 220 217 214 214
7 6 5 1 358 355 349 344 339 332 323 312 300 289 278 266 261 257 252 246 245 243 241 237 232 230 229 228 220 220 218 218 219 218 218 220 220 220 222 221 221 217 218
7 8 4 5 6 5 1 356 351 344 338 328 313 295 281 273 265 260 252 246 244 242 239 236 230 226 228 225 216 215 215 217 220 222 222 222 223 225 225 223 223 224 224
5 8 10 11 13 12 9 5 360 354 348 341 328 305 288 283 274 265 254 247 242 238 236 233 230 226 225 223 218 214 215 220 223 225 225 223 224 225 226 224 226 226 225
5 7 13 13 13 14 12 10 7 3 357 351 340 324 302 284 270 263 254 247 239 237 236 232 230 228 227 225 225 222 221 225 226 226 228 228 229 229 228 227 229 230 228
6 5 12 13 14 15 15 14 11 5 1 358 352 342 325 304 280 267 258 251 244 239 236 235 231 229 229 228 229 230 229 226 227 228 229 232 231 231 232 230 232 233 232
2 4 9 13 13 15 16 14 11 7 4 2 359 354 347 331 300 282 262 252 249 244 242 239 237 235 234 232 230 232 234 233 232 232 232 234 235 234 234 236 235 235 235
359 4 9 13 14 17 16 13 11 10 8 6 6 5 360 353 332 306 282 264 258 253 246 244 244 241 240 237 235 235 237 237 238 239 238 239 238 236 237 240 239 237 236
352 357 4 9 10 11 12 11 10 10 6 4 6 4 360 353 345 331 309 285 272 262 257 253 249 245 243 244 241 240 240 243 244 247 245 242 241 240 241 242 241 241 240
342 349 356 0 1 3 6 8 8 7 6 4 1 357 350 343 337 321 309 301 289 275 264 260 254 250 248 246 243 241 243 245 247 250 251 248 245 245 245 243 242 242 241
331 339 347 353 354 354 358 1 3 2 1 1 357 353 347 336 328 324 311 304 298 289 277 265 259 259 255 250 246 247 247 248 249 252 255 254 249 247 246 245 244 244 244
328 332 336 342 346 348 349 351 352 353 350 349 349 347 344 337 325 323 318 311 304 296 285 274 265 262 258 255 253 253 252 254 255 255 257 257 252 250 248 248 247 247 246
322 324 327 331 334 339 342 342 342 342 339 337 337 335 334 329 323 319 316 311 307 301 292 284 274 266 263 260 259 257 258 257 257 258 260 257 253 252 250 251 251 250 248
313 319 321 324 328 332 336 337 334 333 333 329 326 325 323 320 315 312 310 307 305 302 298 292 282 274 270 266 263 262 262 262 260 259 259 258 256 255 255 255 254 253 251
304 311 315 318 322 326 331 332 331 328 325 324 320 318 316 313 310 306 304 303 301 300 298 294 286 279 275 272 266 264 263 263 261 261 261 260 259 258 258 259 259 258 255
297 304 308 312 315 319 322 325 326 324 321 320 319 317 314 310 306 302 300 299 299 298 295 292 288 283 280 275 271 270 267 266 265 264 263 263 262 262 261 261 261 260 258
292 297 301 305 308 312 314 317 318 318 317 316 315 313 311 309 305 301 298 296 294 294 292 289 288 285 283 280 278 274 271 269 268 267 265 264 263 263 264 263 263 262 260
290 294 298 302 305 307 309 311 313 313 314 313 312 309 307 305 302 300 298 295 292 291 291 289 287 285 283 282 280 277 273 270 269 268 267 266 266 265 263 264 263 262 260
287 292 296 300 303 305 306 308 309 311 312 313 311 308 305 303 301 298 296 294 293 291 290 289 287 285 283 282 280 278 275 273 271 270 269 268 268 267 264 264 263 263 262
285 291 295 298 301 302 304 306 308 309 309 308 307 306 303 301 300 298 296 294 292 291 290 288 287 286 284 282 279 278 276 275 274 272 271 270 270 270 268 267 264 264 264
284 290 295 297 299 301 302 304 305 305 305 305 304 303 302 301 300 299 297 295 294 292 291 289 288 285 283 281 280 278 277 276 275 274 274 273 273 272 272 271 269 266 265
286 291 294 296 298 299 300 301 303 304 304 303 302 302 302 301 300 299 297 296 294 293 291 289 287 285 283 281 280 279 277 276 275 274 274 274 274 274 274 273 273 271 269
289 291 294 295 296 297 299 300 301 302 302 302 302 301 301 300 299 298 298 296 294 292 291 289 288 286 284 283 282 281 279 277 276 276 275 274 274 274 274 274 273 272 272
290 293 295 295 297 297 299 300 300 300 301 301 302 302 301 300 299 298 297 296 294 292 291 291 289 288 286 285 284 283 282 281 279 279 278 277 275 275 274 274 274 274 273
294 295 296 297 297 299 300 299 299 299 299 300 300 301 301 300 299 298 297 295 294 293 291 290 289 288 287 286 285 285 284 284 283 281 280 279 277 276 274 274 274 274 273
Height
5879 5878 5876 5875 5873 5871 5870 5868 5867 5865 5864 5864 5863 5862 5862 5862 5863 5863 5863 5864 5865 5866 5866 5867 5868 5870 5871 5872 5873 5874 5876 5878 5879 5882 5884 5886 5888 5890 5892 5893 5895 5896 5897
5879 5877 5875 5874 5872 5870 5869 5867 5865 5864 5863 5862 5861 5861 5860 5860 5861 5861 5862 5862 5863 5864 5865 5866 5867 5868 5869 5870 5871 5872 5873 5875 5877 5879 5882 5884 5886 5888 5890 5891 5893 5894 5895
5878 5877 5875 5873 5871 5870 5868 5866 5864 5863 5862 5861 5860 5859 5859 5859 5859 5859 5860 5861 5861 5862 5863 5864 5865 5866 5867 5869 5869 5870 5871 5873 5875 5877 5879 5881 5884 5886 5887 5889 5890 5892 5893
5878 5876 5875 5873 5871 5869 5867 5865 5863 5862 5860 5859 5859 5858 5858 5858 5858 5858 5858 5859 5859 5860 5861 5862 5863 5864 5866 5867 5867 5868 5870 5872 5873 5875 5877 5879 5881 5883 5885 5886 5888 5889 5891
5878 5876 5874 5873 5871 5869 5866 5864 5863 5861 5859 5858 5857 5857 5856 5856 5856 5856 5857 5857 5858 5858 5859 5860 5862 5863 5864 5865 5866 5867 5869 5870 5871 5873 5875 5877 5878 5880 5882 5884 5885 5887 5888
5877 5876 5874 5872 5870 5868 5866 5864 5862 5860 5859 5858 5857 5856 5855 5855 5855 5855 5855 5856 5856 5857 5858 5859 5860 5861 5862 5864 5865 5866 5867 5868 5870 5871 5872 5874 5876 5877 5879 5881 5883 5884 5885
5877 5875 5874 5872 5870 5868 5866 5864 5862 5860 5859 5857 5856 5855 5855 5854 5854 5854 5854 5855 5855 5856 5857 5857 5858 5859 5861 5862 5863 5864 5865 5866 5867 5868 5870 5871 5873 5874 5876 5878 5879 5881 5882
5876 5875 5873 5872 5870 5868 5866 5864 5862 5860 5858 5857 5856 5855 5854 5854 5853 5853 5853 5854 5854 5854 5855 5856 5857 5858 5859 5860 5861 5862 5863 5864 5865 5866 5867 5868 5869 5871 5872 5874 5875 5877 5878
5876 5874 5873 5871 5870 5868 5866 5864 5862 5860 5859 5857 5856 5855 5854 5854 5853 5853 5853 5853 5853 5853 5854 5854 5855 5856 5856 5857 5858 5859 5860 5861 5862 5863 5864 5865 5866 5867 5869 5870 5871 5873 5874
5875 5874 5872 5871 5870 5868 5866 5864 5862 5861 5859 5857 5856 5855 5855 5854 5853 5853 5852 5852 5852 5852 5852 5852 5853 5853 5854 5855 5856 5857 5858 5859 5859 5860 5861 5861 5862 5863 5864 5866 5867 5868 5870
5874 5873 5872 5871 5869 5868 5866 5864 5862 5861 5859 5858 5856 5855 5854 5854 5853 5852 5852 5851 5851 5850 5850 5850 5851 5851 5851 5852 5853 5853 5854 5855 5856 5856 5857 5857 5858 5859 5860 5861 5862 5863 5864
5874 5872 5871 5870 5869 5867 5866 5864 5862 5861 5859 5858 5856 5855 5854 5853 5852 5851 5851 5850 5849 5849 5848 5848 5848 5848 5848 5849 5849 5850 5851 5852 5852 5853 5853 5853 5854 5855 5856 5857 5858 5859 5859
5873 5872 5870 5869 5868 5867 5865 5863 5862 5860 5859 5857 5856 5855 5854 5852 5851 5851 5850 5849 5848 5847 5847 5846 5846 5846 5846 5846 5846 5846 5847 5848 5848 5849 5849 5849 5850 5850 5851 5852 5853 5854 5854
5871 5870 5869 5868 5867 5866 5864 5862 5861 5859 5858 5856 5855 5854 5853 5851 5850 5850 5849 5848 5847 5846 5845 5844 5844 5843 5843 5843 5843 5843 5843 5844 5844 5844 5844 5844 5844 5845 5846 5847 5847 5848 5849
5870 5869 5868 5867 5866 5865 5863 5861 5860 5858 5857 5855 5854 5853 5851 5850 5849 5848 5847 5846 5845 5844 5843 5842 5841 5840 5840 5840 5839 5840 5840 5840 5840 5840 5839 5838 5839 5840 5841 5841 5841 5841 5843
5869 5868 5867 5866 5865 5863 5862 5860 5859 5857 5855 5854 5853 5851 5850 5848 5847 5846 5845 5844 5842 5841 5840 5839 5838 5837 5836 5836 5835 5835 5835 5835 5835 5835 5835 5834 5834 5835 5835 5835 5835 5835 5835
5867 5866 5865 5864 5863 5862 5860 5859 5857 5856 5854 5852 5851 5849 5847 5846 5844 5843 5841 5840 5839 5838 5837 5836 5834 5834 5833 5832 5831 5830 5830 5830 5830 5829 5829 5829 5829 5829 5829 5828 5828 5827 5827
5865 5864 5863 5862 5861 5860 5858 5856 5855 5853 5852 5850 5848 5846 5844 5843 5841 5839 5838 5836 5835 5834 5833 5831 5830 5829 5828 5827 5826 5825 5824 5824 5824 5823 5823 5823 5822 5823 5822 5822 5821 5820 5819
5862 5861 5861 5859 5858 5857 5855 5854 5852 5850 5849 5847 5845 5843 5841 5839 5837 5835 5834 5832 5831 5829 5828 5826 5825 5824 5822 5821 5820 5819 5818 5817 5817 5816 5816 5815 5815 5815 5815 5814 5814 5813 5813
5859 5858 5858 5856 5855 5854 5852 5850 5849 5847 5845 5843 5840 5838 5836 5834 5832 5830 5829 5827 5825 5824 5822 5820 5819 5818 5816 5814 5813 5812 5811 5810 5809 5808 5808 5807 5807 5806 5806 5806 5806 5806 5806
5856 5855 5854 5853 5851 5850 5848 5846 5845 5843 5840 5838 5836 5834 5831 5829 5827 5825 5823 5821 5819 5817 5815 5814 5812 5810 5809 5807 5805 5804 5803 5801 5801 5800 5799 5798 5798 5797 5797 5797 5797 5796 5796
5851 5851 5850 5848 5847 5845 5843 5842 5840 5838 5835 5833 5831 5828 5826 5823 5821 5819 5816 5814 5812 5809 5807 5806 5804 5802 5800 5798 5797 5795 5794 5793 5792 5792 5790 5789 5788 5788 5787 5786 5786 5786 5785
5847 5846 5845 5843 5842 5840 5838 5836 5834 5832 5829 5827 5825 5822 5820 5817 5814 5812 5809 5807 5804 5801 5799 5797 5795 5793 5791 5790 5788 5787 5785 5784 5783 5781 5780 5780 5778 5777 5776 5775 5774 5774 5773
5842 5841 5839 5838 5836 5834 5832 5830 5828 5826 5823 5821 5818 5816 5813 5810 5807 5804 5802 5799 5796 5793 5790 5788 5785 5783 5781 5779 5778 5776 5774 5773 5772 5770 5769 5768 5767 5766 5764 5763 5762 5761 5761
5837 5836 5834 5832 5830 5828 5826 5824 5821 5819 5816 5813 5811 5808 5805 5802 5799 5796 5793 5790 5787 5784 5781 5778 5775 5773 5770 5768 5766 5765 5763 5761 5760 5758 5755 5754 5754 5753 5752 5750 5749 5747 5746
5831 5830 5828 5826 5823 5821 5819 5817 5814 5812 5809 5806 5803 5800 5796 5793 5789 5786 5783 5780 5777 5774 5771 5768 5765 5762 5759 5757 5754 5752 5750 5748 5746 5745 5742 5740 5738 5737 5737 5737 5734 5732 5731